Fernwood, MS

12:38 AM CST on January 21, 2017 (GMT -0600)
McComb

Weather History for KMCB - March, 2014

Change the Weather History Date:

Saturday, March 22, 2014

  Actual Average Record
Temperature  
Mean Temperature 66 °F -  
Max Temperature 81 °F 70 °F 87 °F (1991)
Min Temperature 55 °F 44 °F 24 °F (1986)
Cooling Degree Days 2    
Growing Degree Days 16 (Base 50)    
Moisture  
Dew Point 56 °F    
Average Humidity 69    
Maximum Humidity 89    
Minimum Humidity 46    
Precipitation  
Precipitation 0.00 in - - ()
Sea Level Pressure  
Sea Level Pressure 30.01 in    
Wind  
Wind Speed 2 mph (South)    
Max Wind Speed 8 mph    
Max Gust Speed -    
Visibility 9 miles    
Events      
Averages and records for this station are not official NWS values.
T = Trace of Precipitation, MM = Missing Value Source: NWS Daily Summary

Daily Weather History Graph

Daily Weather History Graph

Search for Another Location

Airport or City:

Trip Planner

Search our weather history database for the weather conditions in past years. The results will help you decide how hot, cold, wet, or windy it might be!

Date:

Astronomy

Mar. 22, 2014 Rise Set
Actual Time 7:03 AM CDT 7:14 PM CDT
Civil Twilight 6:38 AM CDT 7:38 PM CDT
Nautical Twilight 6:10 AM CDT 8:07 PM CDT
Astronomical Twilight 5:42 AM CDT 8:35 PM CDT
Moon 12:16 AM CDT (3/22) 11:05 AM CDT (3/22)
Length of Visible Light 12h 59m
Length of Day
12h 11m
Waning Gibbous, 65% of the Moon is Illuminated
Mar 22
Waning Gibbous
Mar 23
Last Quarter
Mar 30
New
Apr 7
First Quarter
Apr 15
Full

Hourly Weather History & Observations

Time (CDT) Temp. Dew Point Humidity Pressure Visibility Wind Dir Wind Speed Gust Speed Precip Events Conditions
12:53 AM 61.0 °F 52.0 °F 72% 30.01 in 10.0 mi South 3.5 mph - N/A   Clear
1:53 AM 59.0 °F 52.0 °F 78% 30.01 in 10.0 mi Calm Calm - N/A   Clear
2:53 AM 57.0 °F 52.0 °F 83% 30.01 in 10.0 mi Calm Calm - N/A   Clear
3:53 AM 55.9 °F 52.0 °F 87% 30.00 in 9.0 mi Calm Calm - N/A   Clear
4:53 AM 57.0 °F 52.0 °F 83% 30.00 in 9.0 mi Calm Calm - N/A   Clear
5:53 AM 57.0 °F 53.1 °F 87% 30.00 in 7.0 mi Calm Calm - N/A   Clear
6:53 AM 55.0 °F 52.0 °F 89% 30.02 in 7.0 mi Calm Calm - N/A   Clear
7:53 AM 57.0 °F 53.1 °F 87% 30.03 in 6.0 mi Calm Calm - N/A   Partly Cloudy
8:53 AM 60.1 °F 55.0 °F 83% 30.06 in 4.0 mi Calm Calm - N/A   Haze
9:53 AM 66.0 °F 59.0 °F 78% 30.07 in 8.0 mi Calm Calm - N/A   Scattered Clouds
10:53 AM 70.0 °F 59.0 °F 68% 30.06 in 10.0 mi Calm Calm - N/A   Mostly Cloudy
11:11 AM 71.1 °F 57.9 °F 63% 30.07 in 10.0 mi Variable 4.6 mph - N/A   Mostly Cloudy
11:30 AM 73.0 °F 57.9 °F 59% 30.07 in 10.0 mi Variable 3.5 mph - N/A   Scattered Clouds
11:53 AM 73.0 °F 57.9 °F 59% 30.05 in 10.0 mi Variable 3.5 mph - N/A   Partly Cloudy
12:53 PM 75.9 °F 57.0 °F 52% 30.03 in 10.0 mi Calm Calm - N/A   Clear
1:53 PM 77.0 °F 55.9 °F 48% 29.99 in 10.0 mi North - - N/A   Scattered Clouds
2:53 PM 78.1 °F 55.9 °F 46% 29.97 in 10.0 mi West 4.6 mph - N/A   Clear
3:53 PM 78.1 °F 55.9 °F 46% 29.96 in 10.0 mi SSW 5.8 mph - N/A   Overcast
4:53 PM 78.1 °F 55.9 °F 46% 29.96 in 10.0 mi Calm Calm - N/A   Overcast
5:53 PM 77.0 °F 57.0 °F 50% 29.96 in 10.0 mi Calm Calm - N/A   Overcast
6:53 PM 75.0 °F 59.0 °F 57% 29.98 in 9.0 mi Calm Calm - N/A   Overcast
7:53 PM 71.1 °F 60.1 °F 68% 29.99 in 10.0 mi Calm Calm - N/A   Overcast
8:53 PM 72.0 °F 60.1 °F 66% 29.99 in 9.0 mi SE 3.5 mph - N/A   Overcast
9:53 PM 70.0 °F 61.0 °F 73% 30.01 in 8.0 mi SE 8.1 mph - N/A   Mostly Cloudy
10:53 PM 68.0 °F 61.0 °F 78% 30.01 in 10.0 mi SSE 6.9 mph - N/A   Overcast
11:53 PM 66.9 °F 62.1 °F 84% 30.02 in 10.0 mi SSW 4.6 mph - N/A   Overcast